Regional Weather Roundup
Issued by NWS

Home | Current Version | Previous Version | Graphics & Text | Print | Product List | Glossary On
Versions: 1 2 3 4 5 6 7 8 9 10 11 12 13 14 15 16 17 18 19 20 21 22 23 24 25 26 27 28 29 30 31 32 33 34 35 36 37 38 39 40 41 42 43 44 45 46 47 48 49 50
000
ASUS45 KBOI 290210
RWRID
WEATHER ROUNDUP FOR IDAHO
NATIONAL WEATHER SERVICE BOISE ID
800 PM MDT MON JUL 28 2014

NOTE: "FAIR" INDICATES FEW OR NO CLOUDS BELOW 12000 FEET
WITH NO SIGNIFICANT WEATHER AND/OR OBSTRUCTIONS TO VISIBILITY

IDZ012-014-290300-
SOUTHWEST IDAHO


CITY           SKY/WX    TMP DP  RH WIND       PRES   REMARKS
BOISE          MOSUNNY   97  43  15 SW8       30.00R HX  93
CALDWELL       MOSUNNY   93  46  20 S6        29.99S
MOUNTAIN HOME  PTSUNNY   94  43  17 SE12      30.02S
$$

IDZ016-017-290300-
SOUTHCENTRAL IDAHO


CITY           SKY/WX    TMP DP  RH WIND       PRES   REMARKS
BURLEY         CLOUDY    80  54  40 CALM      30.12R
JEROME         MOCLDY    80  56  43 N7        30.12S
TWIN FALLS     CLOUDY    87  48  25 W7        30.12S
$$

IDZ019>023-290300-
SOUTHEAST IDAHO


CITY           SKY/WX    TMP DP  RH WIND       PRES   REMARKS
IDAHO FALLS    CLOUDY    74  47  38 NW13      30.19R
POCATELLO      MOCLDY    77  43  29 N12       30.16R
REXBURG        CLOUDY    80  41  24 N14G20    30.18R
$$

IDZ006-010-011-018-031-032-290300-
CENTRAL IDAHO MOUNTAINS


CITY           SKY/WX    TMP DP  RH WIND       PRES   REMARKS
MCCALL         PTSUNNY   80  42  25 E13G21    30.19R
HAILEY         MOCLDY    77  46  33 NW10      30.23S
STANLEY          N/A     63  52  67 N7        30.41R
SALMON         CLOUDY    79  50  36 S12       30.11S
CHALLIS        CLOUDY    74  46  36 NW12      30.24S
$$

IDZ002-004-006-007-026-290300-
NORTHERN IDAHO


CITY           SKY/WX    TMP DP  RH WIND       PRES   REMARKS
LEWISTON       SUNNY    102  38  11 N9        29.94S HX  96
LOWELL           N/A     81  62  52 N3        29.94S
COEUR D`ALENE  SUNNY     93  45  18 E6        30.01S
MULLAN PASS    MOSUNNY   77  40  26 N3        30.31F
$$


USA.gov is the U.S. government's official web portal to all federal, state and local government web resources and services.